GFSCGP_850_rhum_111.txt.gz
RH
25 26 27 22 20 20 20 20 20 15 12 15 17 15 12 11 11 11 12 12 13 14 22 40 52 57 64 66 69 73 76 77 76 70 56 40 57 61 65 74 76 81 91 96
24 27 21 18 18 19 19 22 21 15 13 14 15 16 13 12 11 12 12 12 14 20 34 44 50 55 62 63 70 72 71 76 79 77 75 68 46 51 56 68 70 75 89 95
26 19 14 19 20 18 18 21 20 19 16 15 18 18 13 10 10 10 12 15 28 35 40 46 50 54 59 61 69 70 71 74 78 82 80 78 68 49 62 63 67 71 80 88
31 23 21 23 26 20 25 18 19 20 21 24 12 18 12 12 13 13 19 29 37 44 47 49 51 54 58 60 70 76 80 80 78 84 84 88 90 77 46 52 56 68 79 92
38 33 32 31 30 24 25 19 19 19 22 20 17 18 15 11 12 18 27 39 46 51 52 53 53 55 55 60 69 79 86 85 85 85 97 97 95 90 86 61 67 60 74 84
26 24 26 21 18 18 18 20 20 20 20 29 20 19 16 11 11 18 42 45 50 52 53 54 53 55 57 63 73 83 88 89 90 88 85 88 86 87 96 82 72 72 69 83
29 29 26 21 30 24 21 27 38 36 36 35 17 16 16 20 32 31 42 45 51 52 52 55 54 58 61 68 76 83 88 87 84 87 87 91 100 98 96 83 64 81 78 82
59 76 29 24 26 30 28 28 41 73 50 39 19 24 27 43 46 48 47 49 46 49 51 52 56 60 64 72 79 91 94 80 83 86 90 92 94 99 99 89 72 78 90 86
53 47 34 25 22 23 24 37 24 41 42 40 32 26 45 52 49 52 50 46 46 48 49 54 58 61 67 74 84 100 98 96 95 93 94 97 100 99 98 99 92 73 82 89
42 73 35 28 24 22 23 26 49 35 45 39 24 22 23 67 69 56 50 46 46 47 50 55 59 64 70 79 88 100 100 99 97 97 97 99 98 100 98 98 95 80 87 86
35 40 42 33 32 29 30 30 29 29 38 52 47 32 52 73 58 53 43 45 46 47 51 57 62 68 74 84 94 100 98 99 97 98 96 96 98 100 100 100 91 95 91 89
42 48 61 43 26 26 25 28 28 46 39 28 25 22 45 50 44 44 44 46 46 51 56 61 65 72 80 89 99 100 98 100 99 99 100 98 99 100 100 85 75 86 90 92
50 55 56 37 29 29 30 27 26 28 31 39 48 32 46 41 40 47 38 44 50 57 62 65 69 76 86 96 100 99 100 100 99 97 98 100 100 100 97 92 77 84 95 93
32 35 33 31 25 29 37 25 25 32 59 38 27 21 30 33 27 23 34 51 54 62 72 76 77 82 92 100 100 100 99 100 99 98 98 100 99 100 100 100 100 99 98 99
35 44 30 26 21 20 26 27 28 29 35 45 32 36 27 23 23 36 55 53 56 71 78 86 92 95 99 100 100 98 97 99 100 100 100 99 99 99 98 99 100 100 100 100
41 51 45 38 26 25 28 23 20 21 24 24 21 28 21 22 39 51 62 65 70 81 89 95 100 98 99 97 98 97 97 97 98 99 100 100 100 100 99 100 99 100 99 100
46 45 48 49 25 27 33 25 21 19 18 21 44 32 41 50 77 64 68 75 84 95 100 100 97 98 96 96 97 97 97 98 98 98 98 99 100 100 100 100 99 99 100 100
42 43 42 44 44 48 41 39 44 43 36 34 49 53 63 80 81 86 94 92 98 100 99 96 96 96 96 96 96 97 96 97 97 97 97 97 99 99 99 100 98 98 100 100
32 35 47 52 41 31 46 83 83 85 61 71 72 70 76 79 82 92 100 100 98 98 96 96 96 96 96 97 97 97 97 97 96 96 96 97 97 98 99 99 100 100 99 99
35 34 44 47 56 56 94 63 58 70 79 71 67 66 76 86 90 91 99 96 97 96 96 96 96 96 97 97 97 96 95 94 96 96 97 97 97 97 97 98 98 98 98 98
64 55 56 54 66 80 68 79 78 92 92 81 82 94 83 89 94 97 98 97 96 96 97 97 91 70 73 87 93 93 94 95 98 98 98 97 98 97 97 98 97 98 98 98
58 63 69 68 88 84 77 70 84 94 93 92 98 99 99 99 96 96 97 97 97 96 96 95 91 87 66 41 38 54 85 92 87 87 87 87 89 92 95 96 98 97 97 97
83 87 92 83 88 86 86 94 100 99 96 98 98 99 99 99 97 96 96 96 97 95 84 70 71 76 83 86 76 46 44 41 40 34 34 33 30 27 28 26 31 45 69 90
76 64 78 74 82 86 90 95 99 99 99 98 97 98 96 97 96 95 95 95 96 85 71 66 68 72 79 80 82 81 72 66 58 60 70 64 39 12 10 10 9 9 14 17
68 61 64 77 78 86 87 96 99 97 96 96 96 96 97 96 95 95 95 95 91 79 74 70 72 75 80 82 79 73 83 85 79 79 84 87 85 94 67 16 13 13 9 9
72 86 83 91 78 81 91 99 98 98 96 96 98 96 96 96 97 96 95 98 95 88 78 72 70 70 52 22 17 16 18 20 62 89 91 88 95 94 91 97 76 24 17 10

GFSCGP_850_rhum_114.txt.gz
RH
24 32 36 27 24 22 22 24 24 19 15 17 17 15 13 12 12 12 13 13 12 12 23 39 50 55 59 60 66 72 74 76 74 62 58 63 49 56 67 74 79 82 81 83
24 34 27 24 22 22 22 24 23 18 15 17 16 15 12 11 12 11 12 12 12 12 30 43 49 53 60 61 67 69 69 72 74 78 77 64 58 44 50 64 71 70 78 82
34 26 19 19 19 20 20 22 24 21 15 15 17 18 15 14 13 12 11 11 16 20 38 44 47 51 56 58 66 71 74 70 67 71 64 73 72 62 39 45 59 70 74 78
30 21 22 22 23 20 24 20 22 21 23 33 19 30 19 14 11 11 11 23 36 41 42 44 48 52 54 56 64 70 73 72 71 60 55 62 72 72 63 61 53 62 72 60
37 30 27 32 32 26 29 23 30 30 39 41 28 29 22 15 12 13 22 40 44 46 47 48 50 52 52 59 68 74 75 74 72 65 64 62 60 62 57 53 51 48 58 76
31 26 26 30 32 29 20 22 28 33 34 51 32 28 25 18 17 16 40 42 45 48 48 50 50 53 56 62 70 77 82 84 78 68 68 72 78 72 66 62 54 47 42 65
31 28 23 28 35 24 25 31 44 75 58 51 24 27 22 56 40 48 47 43 47 46 48 48 50 54 58 65 71 77 85 86 82 81 76 76 79 80 78 77 75 66 52 43
37 49 26 25 33 34 30 35 73 73 62 49 62 55 50 51 56 52 44 43 43 43 45 48 52 57 63 67 73 82 82 77 75 80 80 82 83 86 85 85 93 91 72 56
43 44 29 27 26 27 37 43 37 63 65 60 45 50 69 49 49 46 42 44 42 41 43 47 50 57 65 71 80 88 93 86 86 89 88 86 86 87 92 97 98 98 96 68
30 46 49 34 23 22 25 21 46 83 91 59 34 29 69 67 59 50 47 43 43 41 43 49 54 62 69 77 85 93 98 99 98 99 98 96 96 95 97 98 98 98 98 89
27 47 60 44 39 35 31 29 30 35 41 77 52 43 65 75 70 66 44 43 42 44 47 53 58 65 74 82 91 99 95 92 98 100 100 100 99 100 100 99 100 99 100 99
53 55 68 52 29 24 25 30 32 50 45 41 42 42 49 60 50 41 40 41 44 48 52 57 64 71 80 90 98 99 91 91 99 100 100 100 100 100 100 100 100 100 100 100
53 80 65 49 45 29 32 28 27 35 41 49 58 44 42 38 34 40 39 43 46 52 60 66 74 80 90 99 100 95 96 92 96 100 100 100 100 99 100 99 99 100 98 97
45 53 63 73 48 31 40 31 24 34 56 47 41 34 27 45 33 28 42 49 48 62 67 77 84 94 100 100 100 95 98 94 96 100 100 99 98 99 100 99 100 100 99 84
38 50 43 36 28 25 23 22 26 27 30 45 45 43 33 25 34 40 47 50 56 69 78 86 95 100 100 99 93 94 97 95 97 98 99 100 100 100 99 100 100 100 99 91
40 60 49 49 31 25 26 20 20 20 22 25 24 31 21 21 45 52 59 60 72 83 93 98 100 99 99 96 96 97 96 96 96 96 97 99 99 100 100 100 100 100 100 100
49 52 51 50 30 25 33 27 23 22 20 22 41 35 55 62 80 76 76 82 89 98 100 100 100 96 97 96 96 95 96 96 96 97 97 97 97 99 100 100 100 99 99 98
44 47 45 49 44 52 26 38 43 48 41 42 50 60 67 75 87 92 97 98 100 100 100 97 96 97 96 96 96 96 97 96 96 97 97 96 97 97 98 99 99 100 100 97
33 41 50 55 45 33 36 75 75 76 53 53 65 60 68 78 83 99 99 100 100 100 96 96 96 96 96 95 96 96 97 97 96 96 97 97 97 96 97 98 98 98 98 98
25 33 52 44 56 59 85 65 53 58 78 66 66 70 78 75 92 94 99 99 99 96 96 96 96 96 96 96 96 96 96 94 96 97 97 97 97 97 97 96 96 98 98 98
50 46 52 53 62 78 70 69 66 93 86 76 75 74 100 89 92 100 99 96 96 96 97 97 83 48 50 46 56 56 54 59 54 54 64 76 88 97 97 97 97 97 97 97
56 61 64 59 76 82 74 72 80 90 89 87 99 99 99 99 98 97 97 97 96 96 96 94 83 80 77 68 56 47 46 53 44 26 16 17 15 16 16 22 36 60 87 96
79 82 95 85 91 76 82 83 95 94 94 99 98 97 98 96 96 97 98 96 96 95 92 76 79 80 80 68 73 76 69 55 63 65 67 46 17 10 8 8 9 9 8 11
68 60 73 76 79 74 82 90 97 97 99 96 96 96 97 96 97 97 96 97 96 95 77 70 75 82 82 76 66 71 82 78 56 63 66 68 88 50 19 9 8 8 9 11
65 52 62 78 75 74 83 94 100 100 97 96 97 97 97 97 97 96 97 96 96 82 70 70 77 85 83 58 39 32 36 60 66 52 50 51 51 80 81 53 37 27 14 10
72 86 81 94 73 79 88 99 100 98 95 95 97 98 98 95 95 96 95 95 89 76 70 69 70 62 41 26 23 29 31 35 44 50 60 82 76 77 77 94 86 74 66 24

GFSCGP_850_rhum_120.txt.gz
RH
36 46 55 42 42 40 43 44 44 37 29 28 28 26 22 19 18 18 15 15 25 31 50 61 62 62 60 59 49 44 42 36 34 32 25 25 26 32 47 71 74 64 87 100
42 51 41 36 36 38 39 45 45 35 28 28 28 32 27 24 24 24 19 14 35 66 65 64 62 59 56 56 54 47 42 38 33 32 34 35 32 32 37 37 39 54 61 75
44 38 31 36 39 42 40 41 39 38 32 32 38 40 38 29 26 23 24 22 48 64 66 64 61 61 58 51 48 45 41 36 34 33 34 34 36 35 28 28 33 39 42 56
51 36 39 41 43 38 46 30 33 40 41 52 41 61 42 31 30 35 53 52 60 60 61 62 62 59 57 62 55 47 43 39 34 32 32 34 37 38 37 35 30 26 26 33
55 44 47 50 46 40 48 38 46 42 50 49 45 57 42 32 32 61 64 64 64 64 62 65 65 62 61 56 48 41 39 34 35 32 30 28 33 40 40 38 36 34 32 32
51 39 42 44 38 38 36 36 40 42 47 72 44 56 51 91 86 70 62 60 63 65 68 69 65 57 49 43 34 27 30 32 36 36 38 36 38 38 39 40 43 40 36 33
51 47 37 35 45 41 47 66 93 80 72 67 49 56 92 90 86 80 78 77 68 70 70 72 72 64 58 50 43 39 39 40 45 47 50 52 54 54 55 53 49 49 46 44
58 63 36 40 43 51 62 63 92 88 80 68 46 60 93 88 91 91 94 94 92 92 80 76 75 76 76 69 52 51 49 54 50 54 54 58 65 69 70 74 72 68 65 61
55 50 34 31 34 43 48 60 53 70 74 85 67 87 94 85 93 97 98 96 99 98 92 88 82 75 72 60 63 67 63 57 59 62 65 66 70 76 82 87 87 83 81 78
40 49 49 46 29 29 43 45 69 90 94 92 66 60 95 95 91 89 94 96 99 94 90 84 78 82 85 87 81 76 71 68 70 70 72 75 80 87 90 90 91 95 95 98
48 49 57 49 49 46 39 42 42 72 81 92 92 65 72 84 86 85 76 70 70 79 81 83 85 82 87 84 74 72 72 75 76 78 81 82 83 87 94 97 98 100 100 99
57 67 80 68 45 37 38 44 48 84 77 74 75 59 76 86 81 63 62 72 73 77 80 79 81 86 84 83 79 80 82 88 89 89 88 87 89 93 99 99 99 100 100 99
57 75 78 65 59 52 59 46 42 53 62 69 81 64 66 68 70 63 65 70 80 86 88 87 86 84 88 90 90 90 91 87 87 90 90 90 91 93 97 99 99 100 99 100
54 74 66 60 60 61 57 57 43 51 84 83 68 55 43 74 71 68 77 83 85 87 93 100 100 100 100 92 90 93 90 90 89 89 88 91 93 95 97 100 100 100 100 99
59 71 71 58 49 54 87 78 58 55 52 57 50 61 80 73 73 75 80 84 90 97 100 100 100 100 94 94 94 91 91 92 91 92 94 95 96 96 97 97 97 98 100 100
54 75 54 57 46 43 55 53 42 36 34 38 31 96 77 79 83 84 86 90 95 100 100 100 100 98 96 95 93 89 88 89 95 97 97 97 96 96 96 96 96 97 98 97
66 72 74 82 42 37 49 47 37 32 69 58 71 84 83 90 86 93 99 100 100 100 100 100 98 96 96 96 92 90 94 97 99 97 97 97 96 95 96 96 96 96 97 97
73 71 77 80 50 77 66 60 59 79 83 83 89 87 86 86 99 97 94 100 100 100 100 100 100 97 97 97 94 91 73 62 67 87 97 96 96 97 97 96 96 96 96 96
62 73 81 79 83 61 65 81 85 73 86 83 84 95 96 99 98 100 96 96 99 100 100 100 100 99 86 54 31 23 19 13 12 15 16 29 72 95 96 96 96 97 96 96
56 58 75 86 78 85 71 77 67 63 87 79 81 88 94 99 100 98 94 96 99 100 98 97 97 92 50 55 50 44 39 31 32 14 12 13 13 16 18 42 76 91 96 96
70 73 72 88 84 79 80 79 66 86 78 74 82 89 96 94 93 96 96 100 98 97 95 96 92 74 76 77 69 64 52 49 50 38 17 9 9 11 12 13 13 13 13 15
60 71 86 86 88 82 80 80 91 92 88 86 87 87 100 97 95 98 100 98 98 97 97 96 86 86 90 89 75 62 61 53 45 35 31 21 16 8 8 8 8 9 10 11
85 76 90 85 86 89 87 97 89 86 89 98 90 100 97 96 97 98 97 96 96 96 96 95 86 84 91 88 65 39 52 44 34 27 26 29 26 15 11 8 9 12 10 11
84 76 93 88 95 91 94 90 84 90 85 97 91 94 95 94 96 96 96 96 96 96 95 92 72 69 64 66 44 38 48 52 37 33 37 36 26 27 21 22 12 11 24 37
85 77 89 90 90 90 93 86 93 96 95 97 98 95 94 93 98 95 96 96 95 95 94 77 56 48 49 38 40 56 55 44 43 37 35 33 35 37 46 45 41 27 47 74
95 92 94 94 84 79 89 86 92 97 97 97 95 99 98 95 95 96 96 95 95 92 77 54 52 46 37 31 44 62 64 46 31 30 38 52 56 65 71 67 67 63 49 44

GFSCGP_850_rhum_123.txt.gz
RH
42 54 58 48 46 43 45 49 54 45 36 39 38 34 29 24 24 26 25 26 48 71 80 76 76 75 72 66 61 57 55 46 39 33 29 27 27 28 36 42 52 61 70 69
46 60 47 40 41 44 46 50 50 44 38 38 39 38 36 30 28 27 27 29 62 74 74 74 72 69 67 64 59 53 45 40 34 29 27 26 27 26 26 28 30 36 42 50
56 45 38 41 43 46 46 51 50 48 36 35 41 43 38 30 28 41 53 40 66 78 78 76 72 67 62 60 59 56 55 49 42 34 32 30 29 28 27 28 28 28 29 31
49 36 38 40 45 43 53 40 41 49 54 66 38 65 42 38 61 69 74 80 83 79 77 76 74 70 65 58 48 41 37 40 34 30 23 19 18 17 17 18 19 22 26 28
60 48 53 55 48 46 54 46 49 50 56 53 51 66 50 73 82 75 70 76 80 80 77 76 72 65 56 44 35 32 33 40 34 31 24 20 22 19 16 20 18 15 17 22
53 41 44 47 41 44 42 48 50 53 50 85 55 54 65 85 81 72 71 73 77 84 84 77 69 59 54 44 35 30 30 38 44 40 41 46 42 32 29 34 32 30 26 23
55 58 50 44 54 47 49 55 87 92 80 75 48 57 72 88 84 83 88 93 90 92 88 80 67 76 76 63 46 37 38 41 52 57 57 50 50 49 50 49 49 49 46 45
59 62 42 38 47 54 64 65 91 89 82 71 54 64 80 84 84 88 91 96 95 97 96 97 94 81 76 67 67 60 64 63 64 58 53 56 60 61 62 61 65 72 73 72
64 57 36 36 39 44 52 74 63 77 72 86 68 82 86 87 88 90 95 98 100 96 97 92 96 87 76 67 64 60 69 76 70 66 66 70 73 72 73 74 79 86 85 88
45 56 47 44 30 31 46 50 70 91 96 94 73 69 88 95 88 83 89 93 100 99 99 94 84 74 81 83 81 78 82 84 84 84 86 84 89 88 85 88 91 96 98 100
43 51 55 49 51 52 41 50 56 76 86 93 89 70 75 81 77 82 84 89 95 90 84 80 76 84 87 87 81 82 87 82 78 81 87 98 95 94 91 95 100 100 99 100
53 67 79 64 51 40 39 48 56 79 74 82 80 63 50 77 80 73 81 82 80 81 84 75 74 76 76 77 76 78 79 80 84 90 88 90 93 94 100 99 100 100 100 100
67 81 90 72 58 53 58 52 48 60 70 68 80 71 79 83 80 72 78 84 88 87 83 85 90 84 84 83 82 83 85 89 94 95 94 90 93 97 100 100 100 100 99 99
55 71 64 63 54 60 67 59 48 59 92 78 74 67 58 85 76 72 79 86 90 93 95 100 94 90 88 90 92 94 93 93 95 92 93 97 96 96 95 96 97 97 99 100
67 74 72 63 53 61 74 71 68 69 77 93 68 67 87 83 78 87 88 90 95 99 100 100 100 92 97 97 95 97 96 94 96 98 96 94 94 95 96 93 95 97 97 98
58 79 55 59 50 48 68 74 71 67 65 60 58 88 84 84 84 83 86 92 98 100 100 100 98 91 98 99 98 96 98 100 100 96 93 96 97 96 95 96 96 97 97 98
65 85 93 94 55 42 56 59 62 55 60 60 67 68 86 90 90 95 98 97 98 99 100 100 94 95 97 94 58 24 21 23 35 64 92 95 94 97 97 98 96 94 96 96
75 82 97 92 52 82 64 64 72 74 86 88 92 92 88 88 99 97 97 100 99 99 99 95 96 96 75 61 46 23 13 11 11 10 11 17 48 80 91 95 96 97 94 94
70 92 96 87 80 63 69 77 80 75 68 81 96 95 87 98 96 100 93 96 98 95 93 96 95 86 73 58 43 28 19 12 9 10 10 10 10 10 12 18 35 60 89 95
67 63 78 84 80 90 68 78 65 62 83 82 86 95 93 98 99 99 94 90 91 93 96 97 95 78 60 64 48 37 33 25 21 11 9 9 8 8 10 15 17 13 12 16
94 80 80 85 82 74 71 77 66 83 74 82 80 88 95 95 87 93 91 95 94 95 96 96 96 94 84 79 67 45 48 49 40 24 17 8 8 9 9 11 12 13 12 11
75 79 92 87 84 80 78 81 82 82 88 80 83 82 90 97 98 95 93 95 96 97 96 96 95 95 93 86 62 50 51 54 37 29 24 17 12 8 10 11 13 12 11 13
64 74 79 73 77 92 92 93 91 90 88 99 90 91 93 98 97 96 97 98 97 96 96 95 95 96 93 88 70 51 63 46 31 26 24 23 23 17 15 11 13 21 26 20
88 74 92 85 94 95 88 86 82 85 85 91 88 94 97 93 96 97 97 97 96 96 95 95 95 86 87 74 56 62 45 35 26 24 33 34 29 25 23 20 21 22 42 44
87 78 86 93 91 91 94 81 84 95 97 99 97 94 93 92 97 95 96 96 96 95 96 77 68 68 73 69 61 44 33 29 28 40 40 35 32 34 34 36 37 42 73 86
93 92 90 92 83 81 87 87 91 97 100 98 95 99 99 93 95 96 96 95 95 95 74 50 48 50 58 64 58 43 32 32 40 43 45 46 42 41 41 45 44 46 60 93

GFSCGP_850_rhum_126.txt.gz
RH
50 68 78 66 51 45 46 49 54 50 40 43 45 45 40 30 28 29 29 34 89 87 89 83 80 76 72 68 63 59 55 50 46 44 42 41 39 38 37 37 37 41 49 57
48 67 57 44 44 46 48 52 54 47 41 41 43 45 39 37 45 77 74 81 89 88 83 79 74 69 65 60 54 49 45 43 40 38 36 36 34 35 34 34 32 31 31 33
64 50 42 44 46 49 50 52 52 53 44 42 50 52 41 61 71 79 90 91 89 86 80 74 68 62 54 47 42 41 41 36 31 29 29 29 30 31 29 29 28 28 29 29
47 39 40 44 45 46 55 44 46 48 62 78 42 73 54 83 79 78 87 88 82 77 73 67 58 49 43 40 36 33 30 33 32 30 25 27 33 28 27 22 19 18 19 20
56 53 54 50 45 42 50 47 54 56 66 58 55 70 64 82 87 84 79 81 83 77 67 58 59 66 67 65 58 46 40 37 35 39 31 33 38 40 38 33 27 25 27 29
53 44 46 51 46 48 43 50 55 58 61 92 68 68 62 88 79 85 86 87 85 85 86 79 73 74 67 71 65 57 58 50 42 36 32 39 43 45 46 38 34 34 35 36
57 58 50 44 52 48 52 61 91 93 88 84 54 64 51 92 74 81 84 92 85 80 75 81 83 88 86 72 73 66 52 52 49 48 42 50 52 52 59 62 59 50 47 47
61 59 54 46 56 57 65 67 89 91 84 72 61 69 62 81 81 81 83 88 96 90 93 95 96 86 75 67 64 62 56 47 51 54 52 58 63 61 67 80 80 78 72 64
64 59 38 44 44 46 60 76 61 80 74 89 75 66 77 78 83 86 86 95 99 99 94 94 85 74 63 69 68 66 60 58 61 61 68 76 75 76 96 94 97 99 99 98
52 64 44 41 32 34 49 55 75 87 93 87 75 70 73 92 89 86 89 91 88 96 99 90 77 69 70 72 70 72 71 70 72 73 78 81 95 99 100 100 100 100 99 99
48 53 55 49 51 51 50 63 69 77 80 90 88 67 66 77 82 85 80 88 89 98 98 85 78 79 77 77 76 74 76 76 80 81 84 88 89 91 100 100 100 100 99 100
52 63 75 66 50 46 42 54 54 82 80 89 85 66 58 75 78 75 77 95 97 95 87 80 77 80 82 83 77 77 80 79 84 86 89 90 93 100 100 100 99 97 97 100
65 83 91 70 56 56 59 53 53 66 72 66 85 68 90 85 83 78 87 91 90 87 83 84 85 85 93 83 82 86 90 90 92 92 97 99 96 94 96 95 94 96 98 99
68 74 73 67 58 64 72 65 52 63 90 63 62 60 86 90 86 82 89 89 87 86 90 89 84 92 89 85 85 90 94 96 94 93 97 98 98 97 95 94 94 98 98 96
81 84 78 69 62 61 58 65 66 61 57 74 61 70 63 71 81 83 94 89 88 93 98 100 100 100 99 91 87 90 94 94 94 96 94 99 99 96 96 97 97 96 97 98
71 91 69 66 56 58 68 73 77 74 68 67 67 74 82 88 90 90 88 90 95 99 100 100 96 93 90 86 79 46 29 20 30 66 88 96 95 97 97 97 97 97 97 95
83 96 96 95 65 60 86 78 73 63 59 59 74 61 89 92 86 93 94 97 98 99 99 100 92 90 87 74 27 13 12 13 12 12 12 20 34 37 40 63 86 95 96 98
96 98 96 95 74 93 61 65 69 70 73 84 91 92 89 91 98 95 95 96 98 96 99 95 94 89 68 36 35 19 12 11 12 11 11 12 14 14 13 12 14 14 24 49
71 95 97 96 92 67 60 78 79 75 63 86 96 94 97 100 94 99 94 94 95 99 97 97 91 80 53 60 48 38 26 18 11 12 11 11 12 11 12 11 13 12 11 12
92 81 93 95 94 91 68 77 64 61 79 86 92 86 93 94 99 96 96 95 95 96 98 95 93 87 91 85 77 67 51 35 24 15 13 15 13 11 9 9 11 16 13 16
98 98 94 95 89 76 60 79 63 72 69 83 92 95 94 95 82 78 91 92 92 95 96 96 96 95 95 90 86 71 64 49 40 27 16 11 10 11 13 11 8 9 10 13
84 94 96 95 95 90 79 78 77 80 86 81 83 91 96 92 91 88 92 93 96 98 96 96 96 96 96 92 84 66 60 51 39 30 23 19 16 13 11 8 8 7 7 7
85 85 89 79 82 91 86 86 88 79 81 93 81 78 90 99 98 95 96 96 98 97 96 96 95 96 96 88 82 69 72 53 38 32 25 19 18 16 13 10 9 9 12 10
85 73 81 75 91 94 96 93 85 85 84 87 84 84 95 95 97 96 96 96 97 96 96 96 96 96 91 79 81 72 62 55 39 32 22 23 23 22 19 16 16 16 27 29
85 76 86 90 92 91 92 85 83 89 90 91 92 89 95 91 97 94 96 96 96 95 96 96 85 80 80 80 64 54 56 50 35 23 25 33 34 31 27 27 41 51 72 80
90 89 88 86 81 76 89 89 84 99 100 94 90 99 97 90 94 95 96 96 95 96 95 80 70 79 81 71 60 56 50 45 28 21 30 32 29 30 33 29 32 42 60 82

GFSCGP_850_rhum_129.txt.gz
RH
54 58 62 51 45 41 42 45 46 39 33 39 38 37 33 31 51 61 66 83 87 89 82 75 70 65 60 58 54 51 48 47 42 43 44 50 48 44 44 44 44 44 46 49
48 65 57 51 50 47 47 48 45 39 35 37 38 41 37 54 75 83 84 85 87 84 75 68 60 53 46 39 35 32 32 33 34 35 35 34 33 34 36 36 38 37 36 37
54 44 44 49 48 50 48 49 46 43 39 40 43 41 51 67 75 83 89 89 85 80 71 59 50 46 44 40 41 33 28 24 22 20 22 26 28 30 28 27 27 26 26 28
49 42 41 44 43 44 52 39 41 44 52 60 44 53 50 66 76 77 84 85 84 79 62 54 52 51 52 54 58 57 52 48 39 31 26 23 23 23 22 20 20 20 22 30
43 52 47 47 43 38 44 40 45 50 56 60 51 56 52 68 73 77 77 80 79 70 57 57 66 61 56 56 63 62 65 62 53 50 45 38 35 34 30 28 22 24 25 34
46 46 45 43 43 40 43 47 54 54 55 70 52 49 51 72 61 71 71 78 81 81 85 86 89 94 89 83 77 70 66 63 62 61 55 50 48 46 47 46 41 39 36 40
52 48 44 43 46 48 48 57 66 71 77 63 48 60 44 57 62 59 71 77 82 95 98 94 93 84 76 60 56 50 50 49 50 54 58 60 62 65 66 62 57 58 55 53
53 48 48 49 46 48 60 57 60 76 72 53 52 55 42 66 67 71 75 77 90 99 96 95 91 83 59 49 51 51 58 54 57 58 63 67 68 70 75 78 76 77 75 74
58 55 38 46 46 40 57 63 51 64 68 74 49 47 57 75 77 79 77 84 93 100 100 97 86 71 58 57 58 62 64 64 64 65 67 68 77 74 77 84 90 86 85 89
50 57 42 40 38 38 49 48 64 75 83 74 51 51 45 75 72 74 79 82 88 98 97 98 82 67 62 66 67 66 66 67 72 74 78 81 84 89 92 100 100 95 96 95
48 56 52 50 46 45 56 58 58 62 72 85 63 43 49 51 59 67 75 78 84 97 92 97 77 67 67 71 71 73 76 77 77 79 83 86 88 89 88 90 89 91 92 92
46 58 61 53 49 48 45 51 53 71 67 78 69 54 70 62 58 66 72 86 90 94 95 87 73 69 69 74 77 78 80 81 84 86 88 89 90 89 89 93 95 96 95 93
69 75 60 58 60 62 81 62 52 59 58 64 87 54 77 72 70 74 84 92 96 95 90 80 77 72 75 81 80 84 84 85 87 89 89 90 90 92 94 94 94 96 96 97
70 75 73 69 50 51 66 60 49 58 71 59 62 53 57 77 77 81 84 87 91 93 87 87 83 84 85 86 83 83 85 78 84 89 93 97 97 99 98 96 95 93 94 96
76 73 69 64 60 58 55 54 56 56 53 65 55 58 45 60 68 70 85 93 93 93 94 95 90 89 90 80 67 45 25 14 23 53 75 83 93 99 100 100 100 98 96 94
73 84 68 70 58 60 66 60 57 57 54 52 49 57 58 79 81 85 88 88 90 92 99 94 94 89 90 64 28 14 14 12 13 13 16 20 19 19 19 30 62 88 94 96
76 84 85 80 70 78 83 64 61 57 55 57 76 57 70 77 76 80 85 86 90 99 96 97 92 92 78 40 20 13 11 12 12 13 14 16 18 15 13 14 13 12 13 24
88 95 88 86 87 91 49 58 59 64 60 61 68 70 69 74 93 95 93 94 100 96 97 95 94 86 53 40 35 24 14 10 10 10 12 13 13 13 14 13 12 10 12 14
71 77 88 91 80 62 54 74 76 73 53 63 71 86 94 97 93 100 98 94 94 95 98 95 90 71 47 59 50 41 22 14 10 11 14 17 18 16 14 15 14 13 12 12
79 72 91 93 92 85 65 68 61 54 63 78 78 82 90 89 96 86 94 94 96 100 96 92 87 78 87 59 75 50 32 23 17 14 17 20 23 22 15 16 14 13 12 11
95 98 94 88 93 73 53 71 59 64 61 86 82 84 90 90 79 81 94 94 95 94 94 93 91 89 79 80 83 40 34 29 31 27 23 20 17 18 18 20 14 10 8 7
80 95 92 92 95 89 74 73 61 70 89 89 96 92 94 91 85 87 90 92 96 96 97 94 93 92 93 89 57 45 36 40 38 30 22 19 17 15 16 15 19 14 10 9
90 84 85 77 77 83 74 80 73 71 85 81 86 92 94 93 91 91 94 96 96 94 96 96 95 94 95 72 60 51 48 46 41 30 26 24 21 16 14 15 17 18 18 18
71 68 74 72 81 82 95 88 80 81 75 77 78 78 90 99 98 96 95 97 96 95 96 95 95 96 94 75 70 57 51 48 38 33 32 25 18 17 16 24 27 40 54 60
79 71 82 75 87 87 95 88 82 83 79 83 81 83 94 89 98 93 95 95 95 95 97 96 96 95 75 68 61 56 52 43 34 35 30 26 23 23 22 22 36 78 79 91
89 83 74 70 74 70 82 89 85 85 88 85 83 96 98 89 92 90 94 94 92 94 96 96 88 77 72 61 58 54 45 37 35 31 27 25 26 27 23 23 28 31 49 94

GFSCGP_850_rhum_132.txt.gz
RH
39 30 27 17 22 28 29 28 27 22 20 26 23 22 20 21 22 28 39 50 60 64 66 67 65 59 57 45 44 43 41 40 39 37 38 42 46 55 61 44 44 43 42 43
39 32 23 31 38 38 35 34 28 20 23 28 24 25 21 32 36 49 48 54 59 62 64 63 66 69 56 47 38 31 27 25 22 21 21 23 25 28 33 36 36 36 35 34
26 22 31 41 38 38 30 32 25 28 24 24 28 26 28 42 49 58 61 62 63 63 61 62 69 76 60 58 57 57 53 48 45 40 33 26 28 38 43 21 21 22 24 25
29 21 33 32 28 26 30 24 30 30 34 32 33 26 25 34 41 50 59 62 64 65 62 63 69 76 77 62 62 62 60 60 58 56 52 47 52 62 55 51 32 25 22 22
22 34 36 36 29 28 29 32 34 38 39 38 33 39 21 32 36 41 52 60 64 63 59 68 81 91 88 86 80 68 54 48 52 51 54 55 57 66 70 74 58 48 37 40
22 36 32 25 29 30 34 38 36 38 36 39 26 31 17 33 31 29 44 56 61 63 70 84 91 84 79 68 58 59 60 57 50 48 59 65 73 68 68 77 78 76 59 65
29 29 26 32 34 35 36 41 38 36 43 33 35 36 24 28 31 32 41 50 61 68 80 89 87 82 76 67 64 60 58 59 57 58 59 76 67 88 91 86 94 95 96 84
27 28 33 34 32 29 37 35 40 43 32 29 36 37 25 30 35 42 45 51 62 74 92 88 86 82 77 74 65 58 59 65 62 63 68 70 75 89 96 96 97 98 97 97
36 33 29 33 34 30 40 47 30 43 36 46 30 23 45 51 51 56 55 58 63 77 97 86 83 81 78 78 68 66 63 64 65 68 71 75 79 86 90 92 98 98 97 96
34 29 16 25 33 34 37 30 47 48 57 44 26 24 29 50 51 56 57 59 63 82 97 89 81 81 79 78 77 65 64 68 72 73 76 79 81 85 91 95 92 90 91 94
33 39 26 38 34 26 38 44 46 42 44 55 45 28 28 26 29 41 45 55 59 73 84 87 81 82 84 85 85 69 71 74 74 75 76 77 78 85 86 86 87 90 96 97
25 28 36 25 25 35 36 39 38 66 52 68 60 42 30 32 32 34 38 53 57 80 81 87 85 82 86 90 90 90 82 75 75 79 80 81 80 83 89 88 91 92 98 100
36 31 38 22 27 42 51 44 46 68 93 80 71 50 40 44 42 45 49 56 68 78 82 84 82 84 88 85 82 84 83 73 71 76 78 82 87 90 93 93 92 91 96 100
57 50 47 35 24 32 52 45 42 56 74 56 46 36 27 40 45 51 55 64 70 78 83 78 79 87 90 82 81 69 43 20 22 36 42 38 34 60 92 96 96 95 97 98
46 56 45 38 35 38 41 41 37 41 44 61 48 40 30 27 32 43 54 66 72 76 78 79 86 89 85 85 73 43 17 12 12 12 12 12 13 15 16 26 66 86 96 98
51 59 52 50 38 38 42 37 36 35 39 40 38 39 26 36 48 59 63 69 71 75 81 89 92 89 91 76 44 16 13 12 12 12 12 13 13 12 12 13 14 24 35 27
50 61 62 74 42 55 60 41 34 33 28 36 61 42 32 43 50 53 63 68 73 82 93 96 99 100 96 43 19 12 12 11 10 10 10 10 12 13 12 13 13 18 24 21
53 54 63 71 54 89 32 33 39 41 37 37 38 38 44 46 63 68 69 74 83 93 100 100 100 99 66 45 30 20 13 12 12 12 13 11 11 12 14 13 12 16 22 26
44 55 73 77 52 38 34 45 73 71 40 33 44 40 60 69 76 92 90 90 99 100 100 100 91 69 53 58 54 36 20 13 12 13 15 15 13 10 10 10 11 16 28 23
43 44 69 57 62 62 52 48 47 43 61 34 44 54 70 72 74 78 99 100 100 97 94 88 79 66 72 69 92 51 28 19 16 16 16 17 16 12 10 11 14 21 34 35
72 91 90 79 78 46 29 49 46 67 57 57 55 62 72 72 79 100 100 100 97 92 92 88 84 90 79 88 93 39 29 22 22 19 17 15 15 16 17 17 17 29 41 55
42 64 72 84 91 86 53 57 50 64 69 68 68 75 78 97 91 100 100 100 100 99 100 100 97 90 92 94 52 36 32 28 24 21 18 15 15 19 35 67 65 54 82 98
81 65 67 63 54 72 61 80 75 68 69 76 81 90 92 96 98 100 100 100 100 100 100 100 100 98 99 86 54 40 34 31 28 23 18 16 16 35 74 94 100 100 100 100
53 51 69 70 69 64 72 82 80 74 74 83 90 98 98 97 100 100 100 99 100 100 100 100 100 100 100 96 72 63 37 33 29 23 21 22 19 30 95 98 100 100 100 100
51 57 56 66 78 93 94 78 81 91 88 77 76 82 96 99 100 100 99 100 100 100 100 100 100 100 100 98 84 63 52 49 41 29 32 48 51 84 91 69 94 100 100 97
63 68 76 69 62 68 59 74 91 94 80 78 74 93 99 100 100 100 100 100 100 100 100 100 100 100 96 90 58 49 59 49 40 30 30 43 67 89 94 97 100 41 41 62